Location: Alafon
(8.4500°N, 4.2333°E)
Time: 08:57:35
(UTC+00:00)

A-11 Canister half - Pass Details

Date: 06 August 2021
Orbit: 1515 x 1685 km, 47.2° (Epoch: 21 September)

Event Time Altitude Azimuth Distance (km) Brightness Sun altitude
Rises 23:21:01 0° 320° (NW) 4,928 12.0 -64.2°
Reaches altitude 10° 23:24:11 10° 320° (NW) 3,942 11.3 -64.4°
Enters shadow 23:24:22 11° 320° (NW) 3,883 11.3 -64.4°
Maximum altitude 23:34:23 88° 51° (NE) 1,675 - -64.9°
Drops below altitude 10° 23:44:25 10° 140° (SE) 3,877 - -65.1°
Sets 23:47:30 0° 140° (SE) 4,844 - -65.1°
